{"data":{"norad_id":61205,"epoch":"2026-09-21T02:37:11.147520Z","epoch_age_seconds":139529,"freshness":"FRESH","line1":"1 61205U 24171F   26264.10915680  .00000218  00000+0  66585-5 0  9994","line2":"2 61205  53.1565 292.7583 0000896  35.7598 324.3480 15.69712091115098","mean_motion":15.69712091,"eccentricity":8.96e-5,"inclination_deg":53.1565,"raan_deg":292.7583,"arg_perigee_deg":35.7598,"mean_anomaly_deg":324.348,"bstar":6.6585e-6,"rev_number":11509,"period_min":91.736568015007,"perigee_km":359.11705472891,"apogee_km":360.32447884072,"semimajor_km":6737.8577667848,"source":"CELESTRAK","updated_at":"2026-09-22T09:00:49.339446Z"}}